Location: Unspecified
(0.0000°N, 0.0000°E)
Time: 04:46:27
(UTC+02:00)

Meteor PRIRODA - Visible Passes

Search period start: 25 April 2017 00:00
Search period end: 05 May 2017 00:00
Orbit: 496 x 514 km, 97.4° (Epoch: 23 April)

Date Brightness Start Highest point End Pass type
(mag) Time Alt. Az. Time Alt. Az. Time Alt. Az.
27 Apr 5.9 06:33:13 10° NNW 06:33:52 14° NNW 06:33:52 14° NNW visible
28 Apr 5.9 06:14:44 10° N 06:15:38 17° N 06:15:38 17° N visible
29 Apr 6.2 05:56:38 10° NNE 05:57:25 16° NNE 05:57:25 16° NNE visible
30 Apr 6.8 05:38:55 10° NE 05:39:12 12° NE 05:39:12 12° NE visible
02 May 5.7 06:36:39 10° NNW 06:37:30 15° NNW 06:37:30 15° NNW visible
03 May 5.6 06:18:02 10° N 06:19:15 19° N 06:19:15 19° N visible
04 May 5.9 05:59:52 10° NNE 06:01:00 19° NNE 06:01:00 19° NNE visible
